カタログに戻る

STARLINK-1805

運用中通信VLEO
NORAD 46705·PAYLOAD·🇺🇸 United States

打ち上げ Oct 18, 2020 から Cape Canaveral Space Force Station

Loading…

次のパス (今後24時間)

TLE

最新Source: CelesTrak SupGP

元期: Sep 14, 2026, 21:53 UTC

1 46705C 20073AM  26257.91229167  .06177000  00000+0  14500-2 0  2572
2 46705  53.0233  22.1939 0011742 324.9882   1.3035 16.28719734    18

AllMySatでSTARLINK-1805をリアルタイム追跡

Download on the App Store